Tracking 22287 objects as of 27-Jan-2021
HD Live streaming from Space Station
objects crossing your sky now

ONEWEB-0068

Track ONEWEB-0068 now!
10-day predictions
ONEWEB-0068 is classified as:


NORAD ID: 45446
Int'l Code: 2020-020Y
Perigee: 1,223.4 km
Apogee: 1,226.2 km
Inclination: 87.9 °
Period: 109.8 minutes
Semi major axis: 7595 km
RCS: Unknown
Launch date: March 21, 2020
Source: United Kingdom (UK)
Launch site: TYURATAM MISSILE AND SPACE COMPLEX (TTMTR)
aabbcc
Your satellite tracking list
Your tracking list is empty




NASA's NSSDC Master Catalog

Two Line Element Set (TLE):
1 45446U 20020Y   21027.58334491 -.00005396  00000-0 -15269-1 0  9995
2 45446  87.8840  52.0649 0001821 114.5443 210.6672 13.11423804 44852
Source of the keplerian elements: AFSPC